Richlands, VA

11:49 PM EDT on July 23, 2017 (GMT -0400)
Tazewell County

Weather History for KJFZ - March, 2014

Change the Weather History Date:

Saturday, March 8, 2014

  Actual Average (KBLF) Record (KBLF)
Temperature  
Mean Temperature 51 °F -  
Max Temperature 62 °F 48 °F 77 °F (2000)
Min Temperature 40 °F 30 °F 4 °F (1986)
Degree Days  
Heating Degree Days 14    
Growing Degree Days 1 (Base 50)    
Moisture  
Dew Point 32 °F    
Average Humidity 52    
Maximum Humidity 83    
Minimum Humidity 24    
Precipitation  
Precipitation 0.00 in - - ()
Sea Level Pressure  
Sea Level Pressure 30.03 in    
Wind  
Wind Speed 5 mph (West)    
Max Wind Speed 15 mph    
Max Gust Speed 20 mph    
Visibility 10 miles    
Events      
Averages and records for this station are not official NWS values.
T = Trace of Precipitation, MM = Missing Value Source: NWS Daily Summary

Daily Weather History Graph

Daily Weather History Graph

Search for Another Location

Airport or City:

Trip Planner

Search our weather history database for the weather conditions in past years. The results will help you decide how hot, cold, wet, or windy it might be!

Date:

Astronomy

Mar. 08, 2014 Rise Set
Actual Time 6:48 AM EST 6:28 PM EST
Civil Twilight 6:22 AM EST 6:54 PM EST
Nautical Twilight 5:52 AM EST 7:24 PM EST
Astronomical Twilight 5:22 AM EST 7:54 PM EST
Moon 11:37 AM EST (3/8) 1:16 AM EST (3/8)
Length of Visible Light 12h 31m
Length of Day
11h 39m
First Quarter, 51% of the Moon is Illuminated
Mar 8
First Quarter
Mar 16
Full
Mar 23
Last Quarter
Mar 30
New
Apr 7
First Quarter

Hourly Weather History & Observations

Time (EST) Temp. Windchill Dew Point Humidity Pressure Visibility Wind Dir Wind Speed Gust Speed Precip Events Conditions
12:15 AM 43.3 °F 41.7 °F 33.8 °F 69% 29.98 in 10.0 mi South 3.5 mph - N/A   Clear
12:35 AM 45.0 °F 42.6 °F 34.2 °F 66% 29.98 in 10.0 mi WSW 4.6 mph - N/A   Clear
12:55 AM 44.6 °F 43.1 °F 33.8 °F 66% 29.99 in 10.0 mi WSW 3.5 mph - N/A   Clear
1:15 AM 43.5 °F 40.1 °F 34.3 °F 70% 30.00 in 10.0 mi WSW 5.8 mph - N/A   Clear
1:35 AM 45.7 °F 43.4 °F 34.7 °F 65% 30.00 in 10.0 mi WSW 4.6 mph - N/A   Clear
1:55 AM 41.2 °F 39.2 °F 34.2 °F 76% 30.00 in 10.0 mi SW 3.5 mph - N/A   Clear
2:15 AM 43.7 °F 42.1 °F 34.7 °F 71% 30.00 in 10.0 mi SW 3.5 mph - N/A   Clear
2:35 AM 44.1 °F 42.5 °F 34.7 °F 70% 29.99 in 10.0 mi WSW 3.5 mph - N/A   Clear
2:55 AM 44.1 °F - 34.7 °F 70% 29.98 in 10.0 mi Calm Calm - N/A   Clear
3:15 AM 43.7 °F 41.1 °F 34.9 °F 71% 29.98 in 10.0 mi SW 4.6 mph - N/A   Clear
3:35 AM 42.8 °F - 34.9 °F 74% 29.99 in 10.0 mi Calm Calm - N/A   Clear
3:55 AM 42.8 °F 41.1 °F 35.1 °F 74% 29.99 in 10.0 mi WSW 3.5 mph - N/A   Clear
4:15 AM 42.1 °F 39.2 °F 34.7 °F 75% 30.00 in 10.0 mi WSW 4.6 mph - N/A   Clear
4:35 AM 43.7 °F 42.1 °F 36.0 °F 74% 30.00 in 10.0 mi WSW 3.5 mph - N/A   Clear
4:55 AM 42.6 °F 37.8 °F 35.8 °F 77% 30.01 in 10.0 mi West 8.1 mph - N/A   Clear
5:15 AM 42.8 °F 37.5 °F 36.0 °F 77% 30.03 in 10.0 mi WSW 9.2 mph - N/A   Mostly Cloudy
5:35 AM 44.6 °F 42.2 °F 36.9 °F 74% 30.03 in 10.0 mi WSW 4.6 mph - N/A   Mostly Cloudy
5:55 AM 40.8 °F 36.2 °F 36.0 °F 83% 30.03 in 10.0 mi WSW 6.9 mph - N/A   Scattered Clouds
6:15 AM 43.7 °F 40.3 °F 36.5 °F 76% 30.03 in 10.0 mi WSW 5.8 mph - N/A   Scattered Clouds
6:35 AM 43.7 °F 42.1 °F 36.7 °F 76% 30.03 in 10.0 mi WSW 3.5 mph - N/A   Clear
6:55 AM 43.0 °F - 36.0 °F 76% 30.04 in 10.0 mi Calm Calm - N/A   Clear
7:15 AM 41.0 °F 36.4 °F 35.6 °F 81% 30.04 in 10.0 mi West 6.9 mph - N/A   Clear
7:35 AM 42.1 °F 39.2 °F 36.5 °F 81% 30.05 in 10.0 mi WSW 4.6 mph - N/A   Clear
7:55 AM 42.8 °F 39.3 °F 36.9 °F 80% 30.07 in 10.0 mi West 5.8 mph - N/A   Clear
8:15 AM 42.8 °F 40.1 °F 36.9 °F 80% 30.07 in 10.0 mi West 4.6 mph - N/A   Clear
8:35 AM 46.0 °F 43.9 °F 38.5 °F 75% 30.07 in 10.0 mi WSW 4.6 mph - N/A   Clear
8:55 AM 44.8 °F 43.3 °F 37.8 °F 76% 30.07 in 10.0 mi WSW 3.5 mph - N/A   Clear
9:15 AM 47.3 °F - 38.8 °F 72% 30.07 in 10.0 mi West 5.8 mph - N/A   Clear
9:35 AM 48.9 °F - 39.0 °F 69% 30.07 in 10.0 mi WSW 4.6 mph - N/A   Clear
9:55 AM 49.1 °F - 39.2 °F 69% 30.06 in 10.0 mi West 4.6 mph - N/A   Clear
10:15 AM 49.6 °F - 38.7 °F 66% 30.06 in 10.0 mi WNW 3.5 mph - N/A   Clear
10:35 AM 51.1 °F - 39.0 °F 63% 30.07 in 10.0 mi West 3.5 mph - N/A   Clear
10:55 AM 52.7 °F - 39.2 °F 60% 30.07 in 10.0 mi West 5.8 mph - N/A   Clear
11:15 AM 54.0 °F - 34.5 °F 48% 30.06 in 10.0 mi West 9.2 mph - N/A   Clear
11:35 AM 54.9 °F - 31.6 °F 41% 30.06 in 10.0 mi WSW 12.7 mph 19.6 mph N/A   Clear
11:55 AM 55.8 °F - 31.5 °F 40% 30.06 in 10.0 mi WSW 11.5 mph 18.4 mph N/A   Clear
12:15 PM 55.9 °F - 32.0 °F 40% 30.06 in 10.0 mi SW 13.8 mph 18.4 mph N/A   Clear
12:35 PM 57.0 °F - 31.6 °F 38% 30.05 in 10.0 mi WSW 11.5 mph 18.4 mph N/A   Clear
12:55 PM 57.7 °F - 32.2 °F 38% 30.04 in 10.0 mi WSW 15.0 mph - N/A   Clear
1:15 PM 58.8 °F - 31.1 °F 35% 30.03 in 10.0 mi SW 9.2 mph - N/A   Clear
1:35 PM 59.0 °F - 27.1 °F 30% 30.02 in 10.0 mi SW 5.8 mph 18.4 mph N/A   Clear
1:55 PM 60.3 °F - 29.7 °F 31% 30.01 in 10.0 mi WSW 10.4 mph - N/A   Clear
2:15 PM 60.3 °F - 26.4 °F 28% 30.01 in 10.0 mi WSW 9.2 mph - N/A   Clear
2:35 PM 60.8 °F - 27.3 °F 28% 30.00 in 10.0 mi WSW 10.4 mph 16.1 mph N/A   Clear
2:55 PM 61.9 °F - 27.7 °F 27% 30.00 in 10.0 mi WNW 11.5 mph 17.3 mph N/A   Clear
3:15 PM 60.8 °F - 26.8 °F 27% 29.99 in 10.0 mi West 6.9 mph - N/A   Clear
3:35 PM 62.1 °F - 24.3 °F 24% 29.99 in 10.0 mi NW 6.9 mph - N/A   Clear
3:55 PM 62.2 °F - 27.1 °F 26% 29.99 in 10.0 mi NW 6.9 mph - N/A   Scattered Clouds
4:15 PM 61.9 °F - 28.4 °F 28% 29.99 in 10.0 mi West 6.9 mph - N/A   Scattered Clouds
4:35 PM 62.2 °F - 28.2 °F 28% 30.00 in 10.0 mi NW 6.9 mph - N/A   Mostly Cloudy
4:55 PM 60.1 °F - 24.4 °F 26% 30.00 in 10.0 mi WNW 9.2 mph 17.3 mph N/A   Scattered Clouds
5:15 PM 60.1 °F - 25.7 °F 27% 30.01 in 10.0 mi NW 8.1 mph - N/A   Clear
5:35 PM 59.2 °F - 26.4 °F 29% 30.01 in 10.0 mi NW 6.9 mph - N/A   Mostly Cloudy
5:55 PM 58.5 °F - 27.1 °F 30% 30.01 in 10.0 mi WNW 4.6 mph - N/A   Overcast
6:15 PM 58.1 °F - 27.1 °F 31% 30.01 in 10.0 mi NW 4.6 mph - N/A   Overcast
6:35 PM 57.6 °F - 27.9 °F 32% 30.03 in 10.0 mi NW 3.5 mph - N/A   Overcast
6:55 PM 57.4 °F - 27.7 °F 32% 30.03 in 10.0 mi West 4.6 mph - N/A   Overcast
7:15 PM 56.3 °F - 27.9 °F 34% 30.03 in 10.0 mi West 4.6 mph - N/A   Overcast
7:40 PM 55.6 °F - 28.0 °F 35% 30.03 in 10.0 mi West 5.8 mph - N/A   Scattered Clouds
7:55 PM 54.9 °F - 28.4 °F 36% 30.03 in 10.0 mi West 4.6 mph - N/A   Clear
8:15 PM 54.5 °F - 28.2 °F 36% 30.03 in 10.0 mi West 5.8 mph - N/A   Clear
8:35 PM 54.3 °F - 28.2 °F 37% 30.03 in 10.0 mi West 5.8 mph - N/A   Clear
8:55 PM 54.1 °F - 28.2 °F 37% 30.03 in 10.0 mi West 5.8 mph - N/A   Clear
9:15 PM 53.2 °F - 28.8 °F 39% 30.03 in 10.0 mi West 4.6 mph - N/A   Clear
9:35 PM 52.3 °F - 28.9 °F 41% 30.04 in 10.0 mi West 6.9 mph - N/A   Clear
9:55 PM 52.5 °F - 29.1 °F 41% 30.04 in 10.0 mi West 6.9 mph - N/A   Clear
10:15 PM 52.2 °F - 29.3 °F 41% 30.04 in 10.0 mi West 5.8 mph - N/A   Clear
10:35 PM 51.3 °F - 30.0 °F 44% 30.04 in 10.0 mi West 6.9 mph - N/A   Scattered Clouds
10:55 PM 51.3 °F - 30.2 °F 44% 30.05 in 10.0 mi WNW 5.8 mph - N/A   Mostly Cloudy
11:20 PM 50.7 °F - 30.7 °F 46% 30.05 in 10.0 mi WNW 8.1 mph - N/A   Mostly Cloudy
11:35 PM 50.7 °F - 31.8 °F 48% 30.05 in 10.0 mi WNW 8.1 mph - N/A   Mostly Cloudy
11:55 PM 50.4 °F - 32.0 °F 49% 30.05 in 10.0 mi West 8.1 mph - N/A   Mostly Cloudy